Location: Unspecified
(41.1637°N, 24.2901°E)
Time: 16:17:18
(UTC+01:00)

ISS - Visible Passes

Search period start: 30 November 2021 00:00
Search period end: 10 December 2021 00:00
Orbit: 417 x 423 km, 51.6° (Epoch: 30 November)

Date Brightness Start Highest point End Pass type
(mag) Time Alt. Az. Time Alt. Az. Time Alt. Az.
30 Nov -1.1 17:58:55 10° NNW 17:59:39 14° NNW 17:59:39 14° NNW visible
01 Dec -1.8 17:11:48 10° NNW 17:14:04 16° NNE 17:14:25 16° NNE visible
02 Dec -1.6 16:24:37 10° NNW 16:26:37 15° N 16:28:38 10° NE visible
02 Dec -1.4 18:01:06 10° NW 18:02:15 18° NNW 18:02:15 18° NNW visible
03 Dec -2.4 17:14:02 10° NW 17:16:54 24° NNE 17:17:10 24° NNE visible
04 Dec -2.1 16:26:56 10° NNW 16:29:30 20° NNE 16:32:04 10° ENE visible
04 Dec -2.1 18:03:20 10° NW 18:05:12 30° NW 18:05:12 30° NW visible
05 Dec -3.5 17:16:11 10° NW 17:19:30 50° NNE 17:20:23 38° E visible
06 Dec -2.9 16:29:03 10° NW 16:32:11 33° NNE 16:35:18 10° E visible
06 Dec -2.1 18:05:54 10° WNW 18:08:52 33° SW 18:08:52 33° SW visible
07 Dec -3.2 17:18:29 10° WNW 17:21:51 58° SW 17:24:40 14° SE visible
08 Dec -3.8 16:31:13 10° NW 16:34:37 83° NE 16:38:00 10° SE visible
08 Dec -0.5 18:09:47 10° WSW 18:10:58 11° SW 18:12:09 10° SSW visible
09 Dec -0.9 17:21:24 10° W 17:23:54 19° SW 17:26:24 10° S visible
